QPF
0.01 0.01 0.01 0.01 0.01 0.01 0.01 0.01 0.01 0.01 0.01 0.02 0.02 0.03 0.04 0.05 0.05 0.06 0.06 0.09 0.13 0.17 0.23 0.24 0.28 0.29 0.28 0.25 0.20 0.18 0.15 0.10 0.07 0.06 0.04 0.04 0.04 0.03 0.03 0.03 0.03 0.03 0.03
0.00 0.01 0.00 0.00 0.00 0.00 0.01 0.01 0.01 0.01 0.01 0.02 0.02 0.03 0.03 0.03 0.05 0.06 0.06 0.08 0.12 0.19 0.23 0.26 0.31 0.33 0.30 0.25 0.22 0.21 0.14 0.10 0.08 0.06 0.05 0.04 0.04 0.03 0.02 0.02 0.03 0.02 0.04
0.01 0.01 0.01 0.00 0.00 0.00 0.00 0.00 0.00 0.00 0.01 0.01 0.02 0.02 0.02 0.02 0.03 0.04 0.05 0.06 0.07 0.11 0.16 0.21 0.24 0.28 0.27 0.25 0.23 0.21 0.16 0.10 0.07 0.07 0.07 0.06 0.05 0.05 0.03 0.03 0.02 0.03 0.03
0.00 0.00 0.00 0.00 0.00 0.00 0.00 0.00 0.00 0.00 0.00 0.00 0.01 0.00 0.01 0.01 0.01 0.02 0.03 0.04 0.06 0.08 0.11 0.14 0.17 0.19 0.19 0.20 0.19 0.17 0.17 0.13 0.09 0.08 0.08 0.07 0.07 0.08 0.08 0.05 0.03 0.03 0.04
0.00 0.00 0.00 0.00 0.00 0.00 0.00 0.00 0.00 0.00 0.00 0.00 0.00 0.00 0.00 0.00 0.01 0.01 0.02 0.02 0.04 0.06 0.07 0.09 0.12 0.15 0.16 0.17 0.16 0.17 0.16 0.15 0.13 0.11 0.11 0.11 0.09 0.06 0.07 0.09 0.07 0.04 0.03
0.00 0.00 0.00 0.00 0.00 0.00 0.00 0.00 0.00 0.01 0.01 0.01 0.01 0.01 0.01 0.01 0.00 0.01 0.01 0.02 0.03 0.04 0.05 0.06 0.08 0.10 0.11 0.15 0.17 0.18 0.17 0.15 0.16 0.13 0.12 0.13 0.11 0.08 0.06 0.06 0.06 0.05 0.03
0.00 0.00 0.00 0.00 0.00 0.00 0.00 0.00 0.00 0.01 0.01 0.01 0.01 0.01 0.01 0.01 0.01 0.01 0.01 0.01 0.01 0.01 0.02 0.04 0.05 0.07 0.08 0.10 0.13 0.14 0.16 0.18 0.18 0.14 0.12 0.13 0.11 0.09 0.08 0.06 0.05 0.04 0.03
0.00 0.00 0.00 0.00 0.00 0.00 0.00 0.00 0.00 0.01 0.01 0.01 0.02 0.01 0.01 0.00 0.00 0.00 0.01 0.01 0.01 0.01 0.01 0.01 0.02 0.03 0.04 0.06 0.08 0.11 0.12 0.16 0.18 0.16 0.17 0.15 0.11 0.10 0.10 0.09 0.07 0.08 0.05
0.00 0.00 0.00 0.00 0.00 0.00 0.00 0.00 0.00 0.00 0.01 0.01 0.01 0.01 0.01 0.01 0.00 0.00 0.01 0.00 0.01 0.01 0.01 0.01 0.01 0.02 0.02 0.03 0.04 0.06 0.09 0.11 0.13 0.15 0.18 0.17 0.16 0.15 0.14 0.13 0.13 0.12 0.11
0.00 0.00 0.00 0.00 0.00 0.00 0.00 0.00 0.00 0.00 0.00 0.01 0.01 0.00 0.00 0.01 0.01 0.01 0.01 0.01 0.01 0.01 0.01 0.01 0.01 0.01 0.02 0.03 0.03 0.03 0.05 0.06 0.08 0.10 0.13 0.16 0.18 0.20 0.20 0.18 0.17 0.15 0.13
0.00 0.00 0.00 0.00 0.00 0.00 0.00 0.00 0.00 0.00 0.00 0.00 0.00 0.00 0.00 0.00 0.00 0.01 0.01 0.01 0.01 0.01 0.01 0.01 0.01 0.01 0.01 0.02 0.03 0.03 0.03 0.04 0.05 0.06 0.09 0.11 0.15 0.17 0.19 0.21 0.21 0.20 0.17
0.00 0.00 0.00 0.00 0.00 0.00 0.00 0.00 0.00 0.00 0.00 0.00 0.00 0.00 0.00 0.00 0.00 0.00 0.00 0.01 0.01 0.01 0.02 0.02 0.02 0.02 0.01 0.01 0.01 0.02 0.03 0.03 0.04 0.05 0.06 0.08 0.10 0.13 0.15 0.17 0.20 0.22 0.22
0.00 0.00 0.00 0.00 0.00 0.00 0.00 0.00 0.00 0.00 0.00 0.00 0.00 0.00 0.00 0.00 0.00 0.00 0.01 0.01 0.01 0.02 0.02 0.03 0.03 0.02 0.02 0.01 0.01 0.01 0.02 0.03 0.03 0.03 0.05 0.06 0.07 0.09 0.13 0.15 0.15 0.17 0.20
0.00 0.00 0.00 0.00 0.00 0.00 0.00 0.00 0.00 0.00 0.00 0.00 0.00 0.00 0.00 0.00 0.01 0.01 0.01 0.01 0.02 0.02 0.03 0.04 0.04 0.03 0.03 0.02 0.01 0.01 0.01 0.02 0.02 0.03 0.03 0.04 0.05 0.07 0.10 0.13 0.14 0.15 0.16
0.00 0.00 0.00 0.00 0.00 0.00 0.00 0.00 0.00 0.00 0.00 0.00 0.00 0.00 0.01 0.01 0.01 0.01 0.02 0.02 0.03 0.03 0.04 0.05 0.07 0.06 0.05 0.03 0.02 0.02 0.02 0.02 0.02 0.02 0.03 0.03 0.03 0.04 0.06 0.09 0.13 0.15 0.14
0.00 0.00 0.00 0.00 0.00 0.00 0.00 0.00 0.00 0.00 0.00 0.00 0.01 0.01 0.01 0.02 0.02 0.02 0.02 0.03 0.04 0.05 0.06 0.07 0.09 0.09 0.06 0.05 0.05 0.03 0.02 0.03 0.04 0.04 0.03 0.02 0.02 0.02 0.03 0.05 0.08 0.13 0.14
0.00 0.00 0.00 0.00 0.00 0.00 0.00 0.00 0.00 0.00 0.00 0.01 0.01 0.01 0.02 0.02 0.03 0.03 0.04 0.05 0.06 0.07 0.08 0.08 0.09 0.09 0.11 0.09 0.07 0.05 0.03 0.03 0.04 0.05 0.06 0.03 0.01 0.01 0.02 0.03 0.04 0.06 0.09
0.00 0.00 0.00 0.00 0.00 0.00 0.00 0.00 0.00 0.00 0.01 0.01 0.01 0.02 0.02 0.03 0.04 0.05 0.05 0.06 0.08 0.08 0.09 0.10 0.10 0.11 0.11 0.10 0.07 0.05 0.04 0.04 0.04 0.04 0.05 0.04 0.03 0.03 0.03 0.04 0.04 0.04 0.05
0.00 0.00 0.00 0.00 0.00 0.00 0.00 0.00 0.00 0.00 0.01 0.01 0.02 0.02 0.03 0.04 0.04 0.05 0.06 0.08 0.09 0.09 0.09 0.10 0.12 0.13 0.12 0.10 0.07 0.05 0.05 0.05 0.04 0.04 0.04 0.05 0.04 0.03 0.01 0.03 0.05 0.05 0.05
0.00 0.00 0.00 0.00 0.00 0.00 0.00 0.00 0.01 0.01 0.02 0.02 0.02 0.02 0.03 0.04 0.05 0.05 0.07 0.08 0.10 0.10 0.10 0.10 0.12 0.13 0.14 0.13 0.07 0.05 0.06 0.06 0.05 0.06 0.05 0.04 0.04 0.03 0.01 0.02 0.04 0.05 0.05
0.00 0.00 0.00 0.00 0.00 0.01 0.01 0.01 0.01 0.02 0.02 0.02 0.02 0.03 0.04 0.05 0.06 0.07 0.08 0.09 0.11 0.11 0.11 0.11 0.12 0.14 0.14 0.13 0.07 0.05 0.05 0.06 0.07 0.07 0.06 0.04 0.02 0.01 0.01 0.01 0.03 0.03 0.04
0.00 0.00 0.00 0.00 0.00 0.01 0.01 0.01 0.02 0.02 0.02 0.02 0.02 0.03 0.04 0.05 0.05 0.07 0.09 0.11 0.12 0.12 0.12 0.12 0.11 0.13 0.14 0.12 0.08 0.04 0.03 0.04 0.08 0.09 0.07 0.06 0.04 0.01 0.00 0.00 0.01 0.01 0.01
0.00 0.00 0.00 0.00 0.00 0.00 0.01 0.02 0.02 0.02 0.02 0.02 0.02 0.03 0.04 0.06 0.07 0.09 0.10 0.11 0.12 0.13 0.14 0.13 0.13 0.14 0.15 0.14 0.06 0.03 0.02 0.02 0.05 0.09 0.08 0.07 0.04 0.02 0.01 0.00 0.00 0.00 0.00
0.00 0.00 0.00 0.00 0.00 0.00 0.01 0.01 0.01 0.02 0.02 0.02 0.02 0.04 0.05 0.07 0.08 0.10 0.10 0.11 0.12 0.13 0.13 0.14 0.14 0.15 0.17 0.16 0.11 0.06 0.03 0.02 0.02 0.04 0.05 0.03 0.03 0.01 0.01 0.01 0.00 0.00 0.01
0.00 0.00 0.00 0.00 0.00 0.01 0.01 0.01 0.01 0.02 0.02 0.02 0.03 0.04 0.05 0.07 0.09 0.10 0.10 0.08 0.08 0.07 0.07 0.10 0.13 0.15 0.16 0.13 0.10 0.10 0.09 0.07 0.05 0.07 0.10 0.07 0.04 0.02 0.02 0.02 0.02 0.02 0.02
0.00 0.00 0.00 0.00 0.00 0.01 0.01 0.01 0.01 0.02 0.02 0.03 0.04 0.05 0.06 0.07 0.09 0.11 0.11 0.06 0.02 0.01 0.01 0.02 0.04 0.06 0.06 0.03 0.02 0.03 0.03 0.03 0.03 0.05 0.11 0.11 0.10 0.08 0.06 0.05 0.05 0.05 0.05
MSLP
1010.48 1010.75 1010.92 1011.00 1011.02 1011.01 1010.99 1011.01 1011.06 1011.14 1011.24 1011.33 1011.37 1011.36 1011.27 1011.13 1010.93 1010.73 1010.54 1010.38 1010.26 1010.19 1010.13 1010.07 1009.99 1009.86 1009.67 1009.44 1009.19 1008.94 1008.73 1008.58 1008.52 1008.54 1008.63 1008.77 1008.93 1009.09 1009.22 1009.33 1009.42 1009.52 1009.65
1010.47 1010.74 1010.92 1011.02 1011.05 1011.03 1011.00 1011.00 1011.05 1011.14 1011.25 1011.36 1011.43 1011.44 1011.36 1011.19 1010.96 1010.71 1010.46 1010.25 1010.11 1010.02 1009.99 1009.97 1009.93 1009.84 1009.69 1009.47 1009.20 1008.91 1008.64 1008.42 1008.29 1008.25 1008.29 1008.39 1008.54 1008.68 1008.81 1008.92 1009.00 1009.08 1009.18
1010.23 1010.48 1010.67 1010.79 1010.83 1010.82 1010.80 1010.80 1010.86 1010.96 1011.10 1011.25 1011.35 1011.38 1011.32 1011.16 1010.91 1010.63 1010.35 1010.12 1009.95 1009.87 1009.86 1009.88 1009.90 1009.87 1009.76 1009.57 1009.31 1009.00 1008.68 1008.41 1008.20 1008.09 1008.07 1008.12 1008.22 1008.34 1008.45 1008.55 1008.62 1008.69 1008.78
1009.82 1010.05 1010.25 1010.38 1010.45 1010.46 1010.46 1010.48 1010.55 1010.67 1010.83 1011.01 1011.15 1011.22 1011.19 1011.05 1010.81 1010.53 1010.23 1009.98 1009.81 1009.74 1009.74 1009.80 1009.87 1009.90 1009.85 1009.71 1009.47 1009.17 1008.84 1008.52 1008.26 1008.08 1007.99 1007.97 1008.02 1008.09 1008.17 1008.25 1008.32 1008.39 1008.48
1009.35 1009.55 1009.76 1009.92 1010.02 1010.06 1010.07 1010.10 1010.18 1010.31 1010.50 1010.70 1010.88 1010.99 1011.00 1010.89 1010.68 1010.40 1010.11 1009.85 1009.67 1009.59 1009.61 1009.69 1009.80 1009.88 1009.90 1009.82 1009.63 1009.37 1009.05 1008.73 1008.43 1008.20 1008.05 1007.97 1007.94 1007.96 1008.00 1008.04 1008.10 1008.17 1008.27
1008.89 1009.09 1009.31 1009.50 1009.62 1009.68 1009.71 1009.74 1009.82 1009.95 1010.14 1010.36 1010.56 1010.71 1010.76 1010.69 1010.50 1010.24 1009.95 1009.69 1009.50 1009.41 1009.42 1009.51 1009.64 1009.77 1009.85 1009.84 1009.73 1009.53 1009.26 1008.96 1008.67 1008.42 1008.22 1008.08 1008.00 1007.95 1007.94 1007.94 1007.97 1008.04 1008.15
1008.53 1008.74 1008.98 1009.19 1009.33 1009.41 1009.43 1009.45 1009.51 1009.62 1009.80 1010.01 1010.23 1010.39 1010.47 1010.43 1010.27 1010.03 1009.74 1009.47 1009.26 1009.14 1009.12 1009.21 1009.35 1009.51 1009.65 1009.71 1009.69 1009.58 1009.40 1009.16 1008.91 1008.67 1008.46 1008.29 1008.16 1008.06 1007.99 1007.95 1007.95 1007.99 1008.10
1008.32 1008.55 1008.81 1009.04 1009.19 1009.26 1009.27 1009.26 1009.27 1009.35 1009.49 1009.68 1009.88 1010.05 1010.14 1010.12 1009.98 1009.75 1009.46 1009.17 1008.92 1008.77 1008.72 1008.78 1008.91 1009.09 1009.27 1009.41 1009.49 1009.48 1009.40 1009.26 1009.09 1008.90 1008.72 1008.54 1008.39 1008.26 1008.15 1008.07 1008.03 1008.04 1008.12
1008.29 1008.55 1008.83 1009.07 1009.21 1009.25 1009.22 1009.17 1009.13 1009.14 1009.23 1009.37 1009.54 1009.69 1009.77 1009.76 1009.62 1009.40 1009.10 1008.79 1008.51 1008.31 1008.22 1008.24 1008.35 1008.53 1008.74 1008.94 1009.11 1009.21 1009.25 1009.23 1009.16 1009.05 1008.92 1008.79 1008.65 1008.51 1008.38 1008.27 1008.20 1008.18 1008.24
1008.43 1008.72 1009.01 1009.23 1009.35 1009.36 1009.28 1009.16 1009.06 1009.01 1009.03 1009.11 1009.23 1009.34 1009.40 1009.37 1009.23 1009.00 1008.69 1008.36 1008.05 1007.81 1007.66 1007.64 1007.72 1007.88 1008.11 1008.35 1008.58 1008.78 1008.93 1009.03 1009.08 1009.08 1009.04 1008.98 1008.89 1008.78 1008.66 1008.55 1008.46 1008.42 1008.44
1008.72 1009.02 1009.30 1009.49 1009.57 1009.53 1009.40 1009.23 1009.06 1008.94 1008.89 1008.91 1008.97 1009.03 1009.05 1009.00 1008.85 1008.60 1008.29 1007.94 1007.60 1007.32 1007.13 1007.05 1007.09 1007.23 1007.44 1007.69 1007.97 1008.23 1008.47 1008.67 1008.83 1008.95 1009.03 1009.06 1009.05 1009.01 1008.94 1008.86 1008.78 1008.73 1008.73
1009.10 1009.39 1009.63 1009.78 1009.81 1009.72 1009.54 1009.32 1009.10 1008.93 1008.82 1008.78 1008.78 1008.78 1008.76 1008.67 1008.50 1008.24 1007.92 1007.56 1007.21 1006.90 1006.67 1006.55 1006.54 1006.62 1006.80 1007.03 1007.31 1007.60 1007.90 1008.18 1008.44 1008.66 1008.85 1009.00 1009.10 1009.16 1009.17 1009.15 1009.11 1009.07 1009.06
1009.51 1009.76 1009.94 1010.03 1010.01 1009.87 1009.66 1009.41 1009.16 1008.96 1008.81 1008.71 1008.66 1008.61 1008.54 1008.41 1008.22 1007.94 1007.62 1007.25 1006.90 1006.57 1006.32 1006.15 1006.08 1006.11 1006.22 1006.41 1006.65 1006.93 1007.24 1007.56 1007.89 1008.21 1008.50 1008.77 1008.99 1009.17 1009.28 1009.35 1009.38 1009.38 1009.38
1009.88 1010.07 1010.18 1010.20 1010.13 1009.96 1009.73 1009.47 1009.21 1008.99 1008.82 1008.69 1008.59 1008.49 1008.37 1008.20 1007.98 1007.69 1007.36 1007.00 1006.65 1006.32 1006.04 1005.84 1005.72 1005.67 1005.71 1005.82 1006.00 1006.23 1006.51 1006.84 1007.20 1007.58 1007.97 1008.34 1008.68 1008.98 1009.22 1009.39 1009.51 1009.57 1009.61
1010.17 1010.27 1010.30 1010.26 1010.13 1009.94 1009.71 1009.46 1009.22 1009.01 1008.83 1008.67 1008.53 1008.39 1008.22 1008.01 1007.75 1007.45 1007.11 1006.76 1006.41 1006.08 1005.79 1005.55 1005.38 1005.27 1005.22 1005.24 1005.33 1005.49 1005.72 1006.02 1006.39 1006.80 1007.25 1007.71 1008.16 1008.58 1008.93 1009.22 1009.43 1009.58 1009.67
1010.34 1010.35 1010.30 1010.19 1010.02 1009.82 1009.60 1009.38 1009.17 1008.97 1008.80 1008.62 1008.45 1008.26 1008.03 1007.78 1007.48 1007.15 1006.81 1006.46 1006.11 1005.78 1005.49 1005.23 1005.01 1004.83 1004.71 1004.64 1004.64 1004.72 1004.88 1005.13 1005.48 1005.91 1006.39 1006.92 1007.45 1007.96 1008.42 1008.81 1009.12 1009.35 1009.50
1010.37 1010.29 1010.16 1010.00 1009.81 1009.61 1009.41 1009.22 1009.05 1008.87 1008.70 1008.51 1008.30 1008.05 1007.77 1007.46 1007.12 1006.76 1006.40 1006.04 1005.70 1005.37 1005.07 1004.80 1004.54 1004.32 1004.13 1003.98 1003.90 1003.90 1004.00 1004.21 1004.53 1004.94 1005.45 1006.01 1006.59 1007.17 1007.71 1008.18 1008.57 1008.87 1009.08
1010.26 1010.11 1009.92 1009.72 1009.52 1009.33 1009.16 1009.00 1008.85 1008.69 1008.51 1008.30 1008.05 1007.75 1007.41 1007.04 1006.65 1006.25 1005.86 1005.49 1005.15 1004.82 1004.52 1004.23 1003.96 1003.70 1003.47 1003.28 1003.14 1003.09 1003.14 1003.31 1003.60 1004.00 1004.50 1005.07 1005.68 1006.29 1006.87 1007.39 1007.83 1008.19 1008.45
1010.05 1009.84 1009.62 1009.40 1009.20 1009.03 1008.88 1008.74 1008.61 1008.45 1008.26 1008.01 1007.71 1007.35 1006.95 1006.52 1006.07 1005.63 1005.22 1004.83 1004.47 1004.15 1003.85 1003.56 1003.28 1003.02 1002.77 1002.56 1002.41 1002.34 1002.37 1002.51 1002.78 1003.17 1003.66 1004.22 1004.83 1005.44 1006.02 1006.55 1007.01 1007.38 1007.69
1009.77 1009.54 1009.31 1009.09 1008.90 1008.74 1008.60 1008.48 1008.35 1008.18 1007.96 1007.67 1007.31 1006.89 1006.42 1005.93 1005.43 1004.95 1004.50 1004.10 1003.74 1003.42 1003.13 1002.85 1002.58 1002.33 1002.10 1001.90 1001.76 1001.70 1001.73 1001.88 1002.15 1002.53 1003.00 1003.54 1004.11 1004.69 1005.25 1005.75 1006.19 1006.57 1006.88
1009.48 1009.25 1009.02 1008.82 1008.65 1008.50 1008.38 1008.25 1008.10 1007.91 1007.64 1007.30 1006.88 1006.40 1005.87 1005.32 1004.78 1004.27 1003.80 1003.38 1003.02 1002.71 1002.43 1002.17 1001.93 1001.71 1001.52 1001.36 1001.25 1001.22 1001.29 1001.46 1001.74 1002.11 1002.57 1003.07 1003.60 1004.13 1004.63 1005.08 1005.48 1005.82 1006.12
1009.20 1009.00 1008.80 1008.62 1008.47 1008.34 1008.21 1008.08 1007.90 1007.66 1007.35 1006.95 1006.46 1005.92 1005.34 1004.74 1004.16 1003.62 1003.14 1002.73 1002.37 1002.07 1001.82 1001.59 1001.39 1001.21 1001.07 1000.96 1000.91 1000.93 1001.05 1001.25 1001.55 1001.92 1002.35 1002.82 1003.29 1003.76 1004.18 1004.57 1004.91 1005.20 1005.47
1008.97 1008.80 1008.64 1008.49 1008.37 1008.25 1008.12 1007.96 1007.74 1007.45 1007.08 1006.61 1006.07 1005.47 1004.83 1004.20 1003.60 1003.05 1002.57 1002.16 1001.83 1001.55 1001.32 1001.14 1000.98 1000.85 1000.76 1000.71 1000.72 1000.80 1000.96 1001.20 1001.51 1001.89 1002.30 1002.73 1003.15 1003.54 1003.90 1004.20 1004.48 1004.72 1004.94
1008.79 1008.66 1008.54 1008.43 1008.33 1008.21 1008.07 1007.88 1007.62 1007.27 1006.83 1006.30 1005.69 1005.03 1004.36 1003.70 1003.09 1002.54 1002.07 1001.68 1001.37 1001.13 1000.94 1000.79 1000.68 1000.60 1000.56 1000.56 1000.62 1000.75 1000.95 1001.22 1001.55 1001.92 1002.32 1002.71 1003.08 1003.41 1003.69 1003.93 1004.14 1004.33 1004.52
1008.64 1008.56 1008.48 1008.40 1008.32 1008.21 1008.05 1007.83 1007.51 1007.10 1006.59 1005.99 1005.32 1004.62 1003.91 1003.23 1002.61 1002.07 1001.62 1001.26 1000.98 1000.78 1000.62 1000.52 1000.45 1000.41 1000.41 1000.45 1000.55 1000.71 1000.93 1001.22 1001.55 1001.92 1002.29 1002.65 1002.97 1003.25 1003.48 1003.67 1003.83 1003.97 1004.13
1008.52 1008.47 1008.43 1008.37 1008.30 1008.19 1008.01 1007.75 1007.38 1006.91 1006.33 1005.67 1004.94 1004.19 1003.45 1002.75 1002.13 1001.61 1001.18 1000.86 1000.62 1000.45 1000.34 1000.27 1000.23 1000.23 1000.25 1000.32 1000.43 1000.61 1000.84 1001.12 1001.44 1001.79 1002.14 1002.46 1002.75 1003.00 1003.19 1003.34 1003.46 1003.59 1003.73
Thickness
5766 5768 5768 5767 5765 5762 5759 5756 5752 5750 5748 5744 5740 5738 5735 5735 5734 5733 5730 5727 5725 5724 5723 5722 5721 5720 5718 5718 5719 5720 5720 5720 5724 5722 5724 5731 5737 5738 5741 5743 5745 5747 5747
5758 5759 5759 5758 5756 5752 5750 5748 5745 5742 5739 5735 5733 5731 5729 5727 5727 5725 5723 5721 5719 5718 5718 5716 5715 5714 5713 5713 5713 5714 5714 5715 5718 5716 5714 5716 5722 5731 5739 5740 5741 5744 5746
5752 5751 5751 5750 5748 5745 5742 5740 5736 5733 5730 5728 5725 5723 5720 5719 5717 5715 5714 5713 5712 5711 5710 5709 5709 5709 5708 5707 5708 5708 5707 5707 5712 5714 5712 5709 5711 5720 5730 5736 5738 5740 5741
5751 5748 5746 5743 5741 5739 5737 5733 5729 5725 5722 5719 5715 5710 5707 5704 5705 5705 5705 5705 5704 5703 5702 5701 5702 5702 5702 5702 5702 5704 5704 5703 5702 5707 5712 5713 5714 5711 5714 5724 5732 5735 5735
5748 5744 5742 5739 5737 5735 5732 5728 5723 5719 5715 5710 5706 5702 5698 5696 5696 5695 5695 5695 5695 5695 5695 5693 5693 5692 5692 5694 5695 5697 5697 5698 5697 5698 5702 5705 5708 5711 5707 5708 5717 5724 5730
5745 5742 5740 5736 5733 5731 5727 5723 5717 5712 5708 5703 5698 5693 5688 5685 5683 5682 5682 5684 5685 5685 5685 5685 5683 5682 5682 5683 5685 5687 5688 5690 5692 5693 5696 5697 5699 5701 5704 5703 5707 5712 5721
5743 5738 5734 5731 5728 5724 5721 5716 5710 5704 5700 5695 5690 5685 5680 5677 5674 5674 5673 5673 5673 5673 5673 5674 5673 5672 5672 5673 5675 5676 5679 5681 5682 5684 5688 5691 5695 5699 5700 5700 5701 5705 5713
5740 5735 5732 5728 5723 5719 5714 5708 5702 5696 5692 5687 5682 5677 5673 5669 5668 5666 5664 5663 5662 5662 5663 5662 5662 5661 5661 5662 5663 5664 5666 5670 5672 5675 5678 5682 5687 5691 5693 5694 5694 5694 5700
5737 5733 5729 5724 5719 5713 5707 5700 5693 5688 5683 5678 5674 5669 5666 5662 5659 5656 5654 5653 5653 5652 5652 5651 5650 5649 5649 5650 5651 5652 5654 5657 5660 5664 5667 5671 5675 5680 5683 5687 5688 5687 5686
5734 5729 5724 5718 5712 5706 5699 5692 5685 5678 5673 5669 5664 5661 5657 5653 5650 5648 5645 5643 5642 5640 5639 5638 5638 5638 5638 5638 5638 5640 5642 5645 5648 5651 5654 5658 5662 5667 5672 5676 5679 5681 5683
5727 5722 5717 5711 5704 5697 5689 5682 5675 5668 5663 5658 5654 5650 5647 5644 5642 5639 5636 5634 5632 5631 5629 5627 5627 5627 5627 5627 5627 5628 5630 5632 5635 5638 5642 5645 5650 5654 5659 5664 5668 5672 5676
5723 5717 5709 5701 5693 5685 5678 5671 5665 5659 5653 5649 5644 5640 5637 5633 5630 5627 5625 5622 5620 5619 5617 5616 5615 5615 5615 5616 5616 5616 5618 5620 5622 5625 5629 5634 5638 5641 5645 5650 5655 5661 5665
5715 5707 5699 5690 5682 5675 5668 5661 5655 5649 5644 5639 5634 5630 5625 5621 5617 5614 5611 5609 5607 5605 5604 5602 5601 5601 5602 5603 5604 5605 5607 5608 5611 5614 5617 5621 5625 5628 5633 5638 5643 5649 5655
5706 5697 5688 5680 5673 5665 5659 5652 5646 5641 5635 5630 5624 5619 5614 5610 5606 5602 5599 5596 5593 5590 5589 5587 5587 5587 5588 5589 5591 5592 5594 5596 5599 5602 5605 5608 5613 5617 5621 5626 5631 5637 5641
5698 5689 5680 5672 5664 5657 5650 5644 5638 5632 5626 5620 5614 5609 5604 5600 5595 5591 5587 5583 5580 5577 5574 5572 5572 5572 5572 5574 5577 5578 5580 5582 5585 5588 5591 5595 5600 5604 5609 5614 5619 5625 5629
5690 5681 5673 5664 5656 5649 5643 5636 5630 5624 5618 5611 5605 5600 5595 5590 5585 5580 5576 5572 5567 5563 5560 5558 5557 5556 5558 5559 5559 5560 5564 5569 5572 5575 5578 5581 5585 5590 5595 5601 5607 5613 5618
5682 5673 5664 5656 5649 5642 5635 5628 5622 5616 5609 5603 5597 5592 5586 5581 5575 5570 5565 5560 5555 5551 5547 5545 5543 5543 5542 5542 5543 5545 5548 5554 5559 5563 5565 5569 5575 5577 5583 5588 5593 5600 5606
5674 5666 5658 5651 5644 5637 5629 5621 5614 5608 5602 5595 5589 5583 5577 5571 5566 5560 5554 5549 5544 5540 5536 5534 5532 5531 5531 5529 5530 5532 5535 5541 5547 5553 5556 5558 5562 5567 5571 5575 5580 5586 5594
5669 5661 5653 5646 5638 5630 5621 5613 5607 5601 5594 5587 5581 5574 5568 5563 5557 5551 5546 5540 5535 5531 5528 5525 5523 5521 5520 5519 5519 5520 5525 5530 5537 5543 5547 5550 5553 5557 5561 5565 5570 5575 5582
5665 5656 5649 5640 5631 5623 5615 5606 5600 5594 5586 5580 5573 5567 5561 5555 5550 5544 5539 5534 5529 5525 5521 5519 5516 5515 5514 5513 5512 5512 5517 5523 5528 5534 5539 5543 5546 5549 5551 5556 5560 5565 5571
5660 5652 5643 5633 5625 5617 5609 5601 5594 5587 5580 5573 5568 5561 5555 5550 5545 5540 5535 5529 5525 5520 5516 5514 5512 5510 5509 5509 5508 5508 5512 5518 5522 5527 5532 5537 5540 5542 5545 5549 5554 5559 5564
5655 5646 5637 5628 5620 5612 5604 5595 5588 5581 5575 5568 5563 5557 5552 5546 5542 5536 5532 5527 5522 5518 5514 5510 5509 5508 5507 5506 5506 5506 5508 5513 5517 5521 5527 5532 5534 5536 5539 5543 5548 5552 5555
5650 5641 5632 5623 5615 5607 5599 5591 5584 5577 5571 5564 5558 5553 5549 5544 5539 5534 5529 5525 5520 5516 5512 5508 5506 5506 5505 5504 5503 5503 5504 5506 5510 5516 5520 5525 5528 5530 5534 5538 5542 5546 5550
5645 5636 5627 5618 5610 5603 5595 5587 5580 5574 5567 5560 5555 5551 5546 5542 5538 5532 5527 5523 5519 5514 5510 5507 5504 5503 5503 5502 5502 5502 5502 5502 5505 5510 5515 5518 5521 5526 5532 5535 5537 5542 5549
5640 5632 5622 5614 5606 5599 5592 5584 5577 5570 5563 5558 5554 5549 5545 5540 5536 5531 5526 5522 5518 5511 5506 5505 5503 5501 5500 5498 5498 5501 5503 5506 5508 5510 5513 5516 5520 5525 5531 5535 5539 5543 5546
5636 5627 5619 5610 5603 5596 5589 5581 5574 5567 5561 5556 5552 5548 5544 5539 5535 5531 5527 5520 5514 5509 5504 5500 5497 5498 5495 5495 5495 5497 5499 5502 5505 5509 5514 5518 5522 5527 5532 5537 5540 5544 5547